Hourly Weather Shevchenkovo

Today, 5 July, Sunday

Time Temperature Precipitation Wind Pressure Humidity
00:00 +24°C° 0 mm 2 mps 745 mmHg 54%
01:00 +23°C° 0 mm 2 mps 745 mmHg 55%
02:00 +23°C° 0 mm 1 mps 745 mmHg 57%
03:00 +23°C° 0 mm 1 mps 745 mmHg 60%
04:00 +23°C° 0 mm 2 mps 745 mmHg 63%
05:00 +23°C° 0 mm 2 mps 745 mmHg 67%
06:00 +25°C° 0 mm 2 mps 745 mmHg 63%
07:00 +27°C° 0 mm 2 mps 745 mmHg 59%
08:00 +28°C° 0 mm 3 mps 745 mmHg 55%
09:00 +30°C° 0 mm 3 mps 745 mmHg 50%
10:00 +31°C° 0 mm 3 mps 745 mmHg 46%
11:00 +33°C° 0 mm 3 mps 744 mmHg 41%
12:00 +33°C° 0 mm 3 mps 744 mmHg 39%
13:00 +34°C° 0 mm 3 mps 744 mmHg 37%
14:00 +34°C° 0 mm 3 mps 744 mmHg 36%
15:00 +33°C° 0 mm 3 mps 744 mmHg 39%
16:00 +32°C° 0 mm 2 mps 744 mmHg 43%
17:00 +32°C° 0 mm 2 mps 743 mmHg 47%
18:00 +30°C° 0 mm 2 mps 743 mmHg 49%
19:00 +28°C° 0 mm 2 mps 744 mmHg 51%
20:00 +25°C° 0 mm 2 mps 744 mmHg 53%
21:00 +25°C° 0 mm 2 mps 744 mmHg 55%
22:00 +24°C° 0 mm 1 mps 744 mmHg 57%
23:00 +23°C° 0 mm 1 mps 744 mmHg 59%

Tomorrow, 6 July, Monday

Time Temperature Precipitation Wind Pressure Humidity
00:00 +23°C° 0 mm 1 mps 744 mmHg 60%
01:00 +22°C° 0 mm 1 mps 744 mmHg 62%
02:00 +22°C° 0 mm 1 mps 744 mmHg 63%
03:00 +22°C° 0 mm 1 mps 744 mmHg 66%
04:00 +22°C° 0 mm 1 mps 744 mmHg 69%
05:00 +21°C° 0 mm 2 mps 744 mmHg 72%
06:00 +24°C° 0 mm 2 mps 744 mmHg 67%
07:00 +25°C° 0 mm 2 mps 744 mmHg 63%
08:00 +27°C° 0 mm 2 mps 744 mmHg 58%
09:00 +29°C° 0 mm 2 mps 744 mmHg 54%
10:00 +30°C° 0 mm 2 mps 744 mmHg 50%
11:00 +31°C° 0 mm 1 mps 744 mmHg 46%
12:00 +32°C° 0 mm 1 mps 744 mmHg 44%
13:00 +33°C° 0 mm 1 mps 744 mmHg 42%
14:00 +33°C° 0 mm 1 mps 743 mmHg 40%
15:00 +33°C° 0 mm 1 mps 743 mmHg 42%
16:00 +34°C° 0 mm 2 mps 743 mmHg 45%
17:00 +34°C° 0 mm 2 mps 743 mmHg 48%
18:00 +30°C° 0 mm 2 mps 743 mmHg 52%
19:00 +28°C° 0 mm 2 mps 743 mmHg 56%
20:00 +26°C° 0 mm 2 mps 743 mmHg 59%
21:00 +25°C° 0 mm 3 mps 743 mmHg 60%
22:00 +25°C° 0 mm 3 mps 742 mmHg 60%
23:00 +24°C° 0 mm 3 mps 742 mmHg 60%

Day after tomorrow, 7 July, Tuesday

Time Temperature Precipitation Wind Pressure Humidity
00:00 +22°C° 0 mm 3 mps 742 mmHg 61%
01:00 +22°C° 0 mm 3 mps 742 mmHg 63%
02:00 +21°C° 0 mm 3 mps 742 mmHg 64%
03:00 +21°C° 0 mm 3 mps 741 mmHg 65%
04:00 +21°C° 0 mm 3 mps 741 mmHg 66%
05:00 +21°C° 0 mm 3 mps 741 mmHg 66%
06:00 +23°C° 0 mm 4 mps 741 mmHg 62%
07:00 +26°C° 0 mm 4 mps 741 mmHg 57%
08:00 +27°C° 0 mm 4 mps 741 mmHg 53%
09:00 +30°C° 0 mm 5 mps 741 mmHg 48%
10:00 +33°C° 0 mm 6 mps 741 mmHg 43%
11:00 +35°C° 0 mm 6 mps 741 mmHg 38%
12:00 +36°C° 0 mm 6 mps 741 mmHg 36%
13:00 +36°C° 0 mm 6 mps 741 mmHg 34%
14:00 +38°C° 0 mm 6 mps 740 mmHg 33%
15:00 +36°C° 0 mm 6 mps 740 mmHg 36%
16:00 +35°C° 0 mm 5 mps 740 mmHg 40%
17:00 +35°C° 0 mm 4 mps 740 mmHg 44%
18:00 +33°C° 0 mm 4 mps 740 mmHg 46%
19:00 +30°C° 0 mm 4 mps 740 mmHg 48%
20:00 +28°C° 0 mm 4 mps 740 mmHg 50%
21:00 +27°C° 0 mm 4 mps 740 mmHg 50%
22:00 +26°C° 0 mm 3 mps 740 mmHg 49%
23:00 +25°C° 0 mm 3 mps 740 mmHg 49%

8 July, Wednesday

Time Temperature Precipitation Wind Pressure Humidity
00:00 +25°C° 0.1 mm 3 mps 740 mmHg 51%
01:00 +24°C° 0.1 mm 2 mps 740 mmHg 53%
02:00 +24°C° 0.1 mm 2 mps 740 mmHg 54%
03:00 +24°C° 0 mm 2 mps 740 mmHg 56%
04:00 +24°C° 0 mm 2 mps 740 mmHg 59%
05:00 +24°C° 0 mm 1 mps 740 mmHg 61%
06:00 +25°C° 0 mm 2 mps 740 mmHg 58%
07:00 +27°C° 0 mm 3 mps 740 mmHg 55%
08:00 +28°C° 0 mm 3 mps 740 mmHg 53%
09:00 +30°C° 0 mm 4 mps 741 mmHg 48%
10:00 +33°C° 0 mm 4 mps 741 mmHg 44%
11:00 +35°C° 0 mm 5 mps 741 mmHg 39%
12:00 +36°C° 0 mm 5 mps 741 mmHg 37%
13:00 +36°C° 0 mm 5 mps 741 mmHg 34%
14:00 +38°C° 0 mm 6 mps 741 mmHg 32%
15:00 +36°C° 0 mm 5 mps 740 mmHg 38%
16:00 +34°C° 0 mm 4 mps 740 mmHg 44%
17:00 +33°C° 0 mm 3 mps 740 mmHg 50%
18:00 +31°C° 0 mm 2 mps 740 mmHg 50%
19:00 +29°C° 0 mm 2 mps 740 mmHg 50%
20:00 +28°C° 0 mm 2 mps 740 mmHg 50%
21:00 +27°C° 0.5 mm 3 mps 740 mmHg 60%
22:00 +25°C° 0.5 mm 4 mps 741 mmHg 70%
23:00 +23°C° 0.5 mm 5 mps 741 mmHg 80%

9 July, Thursday

Time Temperature Precipitation Wind Pressure Humidity
00:00 +22°C° 0.2 mm 5 mps 741 mmHg 80%
01:00 +22°C° 0.2 mm 5 mps 740 mmHg 81%
02:00 +22°C° 0.2 mm 4 mps 740 mmHg 81%
03:00 +22°C° 0.1 mm 5 mps 740 mmHg 83%
04:00 +22°C° 0.1 mm 5 mps 741 mmHg 84%
05:00 +22°C° 0.1 mm 5 mps 741 mmHg 86%
06:00 +23°C° 0 mm 5 mps 741 mmHg 83%
07:00 +25°C° 0 mm 5 mps 741 mmHg 79%
08:00 +26°C° 0 mm 4 mps 741 mmHg 76%
09:00 +26°C° 0 mm 5 mps 742 mmHg 74%
10:00 +27°C° 0 mm 5 mps 742 mmHg 72%
11:00 +28°C° 0 mm 6 mps 742 mmHg 70%
12:00 +28°C° 0 mm 6 mps 742 mmHg 70%
13:00 +28°C° 0 mm 6 mps 742 mmHg 70%
14:00 +28°C° 0 mm 7 mps 742 mmHg 70%
15:00 +27°C° 0 mm 7 mps 742 mmHg 72%
16:00 +26°C° 0 mm 7 mps 742 mmHg 74%
17:00 +24°C° 0 mm 7 mps 743 mmHg 76%
18:00 +23°C° 0 mm 6 mps 743 mmHg 78%
19:00 +22°C° 0 mm 6 mps 743 mmHg 81%
20:00 +21°C° 0 mm 5 mps 744 mmHg 83%
21:00 +20°C° 0 mm 5 mps 744 mmHg 84%
22:00 +20°C° 0 mm 5 mps 744 mmHg 86%
23:00 +19°C° 0 mm 5 mps 744 mmHg 87%

10 July, Friday

Time Temperature Precipitation Wind Pressure Humidity
00:00 +19°C° 0 mm 6 mps 744 mmHg 84%
01:00 +17°C° 0 mm 6 mps 745 mmHg 81%
02:00 +17°C° 0 mm 6 mps 745 mmHg 78%
03:00 +17°C° 0 mm 6 mps 745 mmHg 78%
04:00 +16°C° 0 mm 6 mps 746 mmHg 77%
05:00 +16°C° 0 mm 6 mps 746 mmHg 77%
06:00 +17°C° 0 mm 6 mps 746 mmHg 73%
07:00 +20°C° 0 mm 7 mps 746 mmHg 69%
08:00 +21°C° 0 mm 7 mps 747 mmHg 66%
09:00 +22°C° 0 mm 7 mps 747 mmHg 62%
10:00 +24°C° 0 mm 7 mps 747 mmHg 58%
11:00 +26°C° 0 mm 7 mps 747 mmHg 55%
12:00 +26°C° 0 mm 7 mps 747 mmHg 54%
13:00 +27°C° 0 mm 7 mps 747 mmHg 54%
14:00 +27°C° 0 mm 7 mps 747 mmHg 53%
15:00 +27°C° 0 mm 6 mps 747 mmHg 56%
16:00 +26°C° 0 mm 6 mps 747 mmHg 58%
17:00 +26°C° 0 mm 6 mps 747 mmHg 60%
18:00 +25°C° 0 mm 5 mps 747 mmHg 66%
19:00 +22°C° 0 mm 5 mps 747 mmHg 71%
20:00 +20°C° 0 mm 4 mps 747 mmHg 76%
21:00 +20°C° 0 mm 4 mps 747 mmHg 79%
22:00 +19°C° 0 mm 4 mps 747 mmHg 82%
23:00 +18°C° 0 mm 4 mps 747 mmHg 85%
Show more